Location: Asheville, NC
(35.6000°N, 82.5500°W)
Time: 19:28:21
(UTC-04:00)

Vanguard 2 - Pass Details

Date: 12 February 2018
Orbit: 553 x 2939 km, 32.9° (Epoch: 27 May)

Event Time Altitude Azimuth Distance (km) Brightness Sun altitude
Rises 17:35:40 0° 204° (SSW) 5,245 12.5 5.6°
Reaches altitude 10° 17:41:50 10° 182° (S) 3,644 11.3 4.5°
Maximum altitude 17:45:46 14° 156° (SSE) 2,970 10.5 3.7°
Drops below altitude 10° 17:49:01 10° 128° (SE) 2,896 10.2 3.1°
Sets 17:52:49 0° 101° (ESE) 3,460 10.3 2.4°
